Flag for Portugal Weather past 2 weeks in Viseu, Portugal

Now
62 °F

Mild.


Feels Like: 62 °F
Forecast: 58 / 82 °F
Wind: 6 mph from Northwest

Location: Viseu

Current Time: Sep 1, 2015 at 12:50:44 AM

Latest Report: Aug 31, 2015 at 11:00 PM


Visibility: N/A

Pressure: 30.04 "Hg

Humidity: 93%

Dew point: 60 °F

Location of ViseuLocation

Historic Weather in Viseu — Graph

°F

Viseu temperature yesterday

Maximum temperature yesterday: 74 °F (at 6:00 PM)
Minimum temperature yesterday: 60 °F (at 5:00 AM)
Average temperature yesterday: 65 °F

Past Weeks' High & Low Weather Summary

 TemperatureHumidityPressure
High91 °F (Aug 20, 3:00 PM)100% (Aug 22, 6:00 AM)30.17 "Hg (Aug 22, 6:00 AM)
Low49 °F (Aug 25, 6:00 AM)21% (Aug 20, 2:00 PM)29.78 "Hg (Aug 30, 4:00 PM)
Average68 °F69%29.99 "Hg
* Reported Aug 16 9:00 PM — Aug 31 9:00 PM, Viseu, Weather by CustomWeather, © 2015

Note: Actual official high and low records may vary slightly from our data, if they occured in-between our weather recording intervals... More about our weather records

Advertising

Viseu weather history for previous 24 hours

 ConditionsComfort  
Time TempWeatherWind HumidityBarometerVisibility
9:00 PM
Mon, Aug 31
65 °FMild.6 mph87%30.01 "HgN/A
8:00 PM67 °FMild.6 mph77%29.99 "HgN/A
7:00 PM72 °FScattered clouds.5 mph65%29.97 "Hg19 mi
6:00 PM74 °FScattered clouds.3 mph59%29.96 "Hg19 mi
5:00 PM71 °FOvercast.3 mph65%30.00 "Hg19 mi
4:00 PM68 °FMild.3 mph80%30.01 "HgN/A
3:00 PM71 °FMild.5 mph68%30.00 "HgN/A
2:00 PM71 °FMild.3 mph72%30.00 "HgN/A
1:00 PM68 °FLow clouds.2 mph79%30.02 "Hg12 mi
12:00 PM65 °FLow clouds.3 mph91%30.03 "Hg7 mi
11:00 AM64 °FLow clouds.5 mph89%30.03 "Hg7 mi
10:00 AM62 °FLow clouds.3 mph94%30.01 "Hg12 mi
9:00 AM61 °FCool.2 mph99%29.99 "HgN/A
8:00 AM61 °FCool.2 mph98%30.02 "HgN/A
7:00 AM60 °FCool.1 mph99%29.98 "HgN/A
6:00 AM60 °FCool.2 mph99%29.99 "HgN/A
5:00 AM60 °FCool.2 mph98%29.98 "HgN/A
4:00 AM60 °FCool.3 mph97%29.98 "HgN/A
3:00 AM61 °FCool.2 mph96%29.97 "HgN/A
2:00 AM63 °FMild.2 mph96%29.98 "HgN/A
1:00 AM64 °FMild.3 mph97%29.97 "HgN/A
12:00 AM66 °FMild.3 mph95%29.96 "HgN/A
Weather by CustomWeather, © 2015

See weather overviewHow to use our weather pages